Bandera, Texas, United States (78003)
Lat: 29.73N, Lon: 99.07W
Wx Zone: TXZ187
Local Info
Past Weather Observations for Yesterday

NOTE: This archive is for the closest National Weather Service station to Bandera. Information may differ from the station used for current weather conditions.

Click here for Long-term Archive

Time Weather Temperature Dewpoint Humidity Pressure Winds Precip Visibility
23:51
Clear
66°F / 19°C 63°F / 17°C 88% 30.12 in
(1020 mb)
ESE 4.6 mph
(ESE 7 kph)
- 10SM
22:51
Clear
70°F / 21°C 61°F / 16°C 73% 30.12 in
(1020 mb)
ESE 5.8 mph
(ESE 9 kph)
- 10SM
21:51
Mostly Cloudy
72°F / 22°C 61°F / 16°C 69% 30.12 in
(1020 mb)
SE 5.8 mph
(SE 9 kph)
- 10SM
20:51
Clear
72°F / 22°C 61°F / 16°C 69% 30.09 in
(1019 mb)
SE 6.9 mph
(SE 11 kph)
- 10SM
19:51
Clear
73°F / 23°C 61°F / 16°C 65% 30.09 in
(1019 mb)
ESE 9.2 mph
(ESE 15 kph)
- 10SM
18:51
Clear
73°F / 23°C 61°F / 16°C 65% 30.06 in
(1018 mb)
ESE 5.8 mph
(ESE 9 kph)
- 10SM
17:51
Clear
77°F / 25°C 61°F / 16°C 57% 30.06 in
(1018 mb)
SE 5.8 mph
(SE 9 kph)
- 10SM
16:51
Partly Cloudy
81°F / 27°C 61°F / 16°C 51% 30.06 in
(1018 mb)
SE 4.6 mph
(SE 7 kph)
- 10SM
15:51
Clear
81°F / 27°C 61°F / 16°C 51% 30.06 in
(1018 mb)
Calm - 10SM
14:51
Partly Cloudy
81°F / 27°C 61°F / 16°C 51% 30.06 in
(1018 mb)
ESE 5.8 mph
(ESE 9 kph)
- 10SM
13:51
Clear
81°F / 27°C 63°F / 17°C 54% 30.09 in
(1019 mb)
S 6.9 mph
(S 11 kph)
- 10SM
12:51
Clear
79°F / 26°C 63°F / 17°C 58% 30.12 in
(1020 mb)
Variable 5.8 mph
(Variable 9 kph)
- 10SM
11:51
Clear
75°F / 24°C 63°F / 17°C 65% 30.15 in
(1021 mb)
SE 4.6 mph
(SE 7 kph)
- 10SM
10:51
Partly Cloudy
70°F / 21°C 64°F / 18°C 83% 30.15 in
(1021 mb)
E 5.8 mph
(E 9 kph)
- 9SM
10:29
Mostly Cloudy
68°F / 20°C 64°F / 18°C 88% 30.18 in
(1022 mb)
Variable 3.5 mph
(Variable 6 kph)
- 8SM
10:19
Overcast
68°F / 20°C 64°F / 18°C 88% 30.18 in
(1022 mb)
ESE 6.9 mph
(ESE 11 kph)
- 8SM
09:51
Overcast
Fog And Mist
66°F / 19°C 64°F / 18°C 94% 30.18 in
(1022 mb)
ENE 5.8 mph
(ENE 9 kph)
- 5SM
08:51
Overcast
Fog And Mist
64°F / 18°C 64°F / 18°C 100% 30.18 in
(1022 mb)
E 5.8 mph
(E 9 kph)
- 5SM
07:51
Overcast
Fog And Mist
63°F / 17°C 63°F / 17°C 100% 30.15 in
(1021 mb)
E 5.8 mph
(E 9 kph)
- 5SM
07:46
Overcast
Fog And Mist
63°F / 17°C 63°F / 17°C 100% 30.15 in
(1021 mb)
ENE 4.6 mph
(ENE 7 kph)
- 6SM
07:27
Overcast
Fog And Mist
63°F / 17°C 63°F / 17°C 100% 30.15 in
(1021 mb)
NE 4.6 mph
(NE 7 kph)
- 6SM
07:17
Overcast
Fog And Mist
63°F / 17°C 63°F / 17°C 100% 30.15 in
(1021 mb)
NNE 4.6 mph
(NNE 7 kph)
- 6SM
07:08
Overcast
Fog And Mist
61°F / 16°C 61°F / 16°C 100% 30.15 in
(1021 mb)
NE 3.5 mph
(NE 6 kph)
- 6SM
06:51
Overcast
61°F / 16°C 61°F / 16°C 100% 30.15 in
(1021 mb)
ENE 4.6 mph
(ENE 7 kph)
- 8SM
05:51
Mostly Cloudy
61°F / 16°C 59°F / 15°C 94% 30.12 in
(1020 mb)
Calm - 8SM
05:20
Mostly Cloudy
61°F / 16°C 61°F / 16°C 100% 30.12 in
(1020 mb)
E 3.5 mph
(E 6 kph)
- 7SM
04:51
Mostly Cloudy
59°F / 15°C 59°F / 15°C 100% 30.12 in
(1020 mb)
NE 5.8 mph
(NE 9 kph)
- 7SM
03:51
Clear
61°F / 16°C 61°F / 16°C 100% 30.12 in
(1020 mb)
ENE 5.8 mph
(ENE 9 kph)
- 8SM
02:51
Partly Cloudy
61°F / 16°C 61°F / 16°C 100% 30.12 in
(1020 mb)
NE 6.9 mph
(NE 11 kph)
- 8SM
01:51
Partly Cloudy
61°F / 16°C 61°F / 16°C 100% 30.12 in
(1020 mb)
NE 5.8 mph
(NE 9 kph)
- 7SM
00:51
Clear
64°F / 18°C 63°F / 17°C 94% 30.12 in
(1020 mb)
E 6.9 mph
(E 11 kph)
- 9SM
Time Weather Temperature Dewpoint Humidity Pressure Winds Precip Visibility


Weather for websites

WeatherForYou.com, LLC is not responsible for any damages or problems caused by this service. Current weather conditions are obtained from the closest station including government and personal stations which may have varying degrees of accuracy. Weather forecasts are derived from the NOAA NDFD. Like all things, this site belongs to Jesus Christ... He just trusts me to maintain it. If you have any questions or comments email webmaster@weatherforyou.com

Copyright © 2014, WeatherForYou.com LLC. All rights reserved.